FW4683 Weather Reports


Display with metric or nautical units.
time (UTC)temp
F
wind
direction
speed
MPH
gust
MPH
rain 1hr
in
rain 24hr
in
rain mn
in
humidity
%
barometer
mb
20260508200132 67 96 8.0 13.0 0.00 0.00 0.00 53 1014.5
20260508195533 67 96 7.0 12.0 0.00 0.00 0.00 53 1014.5
20260508195033 67 96 4.0 12.0 0.00 0.00 0.00 53 1014.5
20260508194533 67 96 5.0 16.0 0.00 0.00 0.00 52 1014.7
20260508194033 67 96 9.0 16.0 0.00 0.00 0.00 51 1014.9
20260508193532 67 96 11.0 16.0 0.00 0.00 0.00 53 1014.7
20260508193101 67 96 6.0 16.0 0.00 0.00 0.00 51 1015.0
20260508192532 68 96 5.0 13.0 0.00 0.00 0.00 51 1014.9
20260508192032 67 96 8.0 13.0 0.00 0.00 0.00 51 1015.0
20260508191532 67 96 7.0 14.0 0.00 0.00 0.00 51 1015.1
20260508191031 67 96 8.0 17.0 0.00 0.00 0.00 50 1015.2
20260508190532 67 96 8.0 17.0 0.00 0.00 0.00 50 1015.3
20260508190135 67 96 5.0 15.0 0.00 0.00 0.00 50 1015.3
20260508185529 67 96 8.0 15.0 0.00 0.00 0.00 49 1015.3
20260508185029 67 96 4.0 16.0 0.00 0.00 0.00 50 1015.4
20260508184528 66 96 5.0 12.0 0.00 0.00 0.00 51 1015.4
20260508184027 66 96 3.0 16.0 0.00 0.00 0.00 51 1015.4
20260508183528 66 96 6.0 16.0 0.00 0.00 0.00 50 1015.6
20260508183027 67 96 4.0 12.0 0.00 0.00 0.00 49 1015.6
20260508182527 67 96 5.0 11.0 0.00 0.00 0.00 49 1015.7
20260508182025 66 96 3.0 14.0 0.00 0.00 0.00 50 1015.6
20260508181526 66 96 9.0 15.0 0.00 0.00 0.00 48 1015.7
20260508181031 66 96 9.0 15.0 0.00 0.00 0.00 49 1015.9
20260508180526 66 96 9.0 15.0 0.00 0.00 0.00 48 1016.0
20260508180128 66 96 5.0 15.0 0.00 0.00 0.00 44 1016.3
20260508175526 66 96 8.0 15.0 0.00 0.00 0.00 43 1016.4
20260508175028 66 96 6.0 14.0 0.00 0.00 0.00 42 1016.2
20260508174535 66 96 4.0 10.0 0.00 0.00 0.00 43 1016.1
20260508174029 66 96 6.0 10.0 0.00 0.00 0.00 45 1016.2
20260508173524 66 96 4.0 12.0 0.00 0.00 0.00 46 1016.4
20260508173022 66 96 6.0 14.0 0.00 0.00 0.00 46 1016.6
20260508172522 65 96 7.0 14.0 0.00 0.00 0.00 50 1016.6
20260508172022 65 96 5.0 13.0 0.00 0.00 0.00 50 1016.7
20260508171629 65 96 8.0 13.0 0.00 0.00 0.00 50 1016.7
20260508171021 65 96 5.0 14.0 0.00 0.00 0.00 50 1016.7
20260508170521 65 96 8.0 14.0 0.00 0.00 0.00 50 1016.9
20260508170120 64 96 6.0 12.0 0.00 0.00 0.00 53 1017.0
20260508165520 65 96 6.0 12.0 0.00 0.00 0.00 52 1017.0
20260508165020 65 96 6.0 12.0 0.00 0.00 0.00 52 1017.1
20260508164525 64 96 6.0 13.0 0.00 0.00 0.00 50 1017.2
20260508164020 64 96 8.0 13.0 0.00 0.00 0.00 52 1017.2
20260508163518 64 96 5.0 14.0 0.00 0.00 0.00 51 1017.2
20260508163019 65 96 9.0 14.0 0.00 0.00 0.00 51 1017.3
20260508162518 64 96 2.0 11.0 0.00 0.00 0.00 52 1017.3
20260508162018 64 96 4.0 13.0 0.00 0.00 0.00 52 1017.3
20260508161535 64 96 6.0 13.0 0.00 0.00 0.00 53 1017.4
20260508161018 64 96 2.0 11.0 0.00 0.00 0.00 53 1017.6
20260508160517 64 96 3.0 8.0 0.00 0.00 0.00 53 1017.6
20260508160117 64 96 2.0 10.0 0.00 0.00 0.00 52 1017.7
20260508155517 64 96 3.0 10.0 0.00 0.00 0.00 52 1017.7
20260508155015 64 96 6.0 11.0 0.00 0.00 0.00 53 1017.8
20260508154515 63 96 4.0 11.0 0.00 0.00 0.00 55 1017.9
20260508154015 64 96 5.0 10.0 0.00 0.00 0.00 55 1017.8
20260508153514 63 96 0.0 10.0 0.00 0.00 0.00 56 1017.9
20260508153014 62 96 4.0 10.0 0.00 0.00 0.00 55 1018.0
20260508152512 62 96 5.0 9.0 0.00 0.00 0.00 56 1017.9
20260508152016 62 96 3.0 8.0 0.00 0.00 0.00 56 1018.0
20260508151524 62 96 2.0 8.0 0.00 0.00 0.00 57 1017.9
20260508151017 62 96 5.0 8.0 0.00 0.00 0.00 58 1017.8
20260508150514 62 96 1.0 7.0 0.00 0.00 0.00 57 1017.9
20260508150110 61 96 4.0 8.0 0.00 0.00 0.00 59 1018.1
20260508145511 61 96 3.0 8.0 0.00 0.00 0.00 59 1018.1
20260508145014 61 96 5.0 10.0 0.00 0.00 0.00 59 1018.2
20260508144509 60 96 6.0 10.0 0.00 0.00 0.00 60 1018.1
20260508144008 60 96 3.0 10.0 0.00 0.00 0.00 61 1018.1
20260508143509 59 96 2.0 8.0 0.00 0.00 0.00 61 1018.2
20260508143007 59 96 3.0 8.0 0.00 0.00 0.00 61 1018.1
20260508142512 59 96 3.0 8.0 0.00 0.00 0.00 60 1018.3
20260508142007 60 96 6.0 8.0 0.00 0.00 0.00 59 1018.2
20260508141510 60 96 0.0 4.0 0.00 0.00 0.00 59 1018.2
20260508141010 60 96 0.0 2.0 0.00 0.00 0.00 57 1018.4
20260508140510 59 96 0.0 7.0 0.00 0.00 0.00 59 1018.4
20260508140117 59 96 0.0 6.0 0.00 0.00 0.00 60 1018.3
20260508135507 59 96 1.0 6.0 0.00 0.00 0.00 60 1018.2
20260508135006 58 96 2.0 6.0 0.00 0.00 0.00 60 1018.3
20260508134506 58 96 0.0 6.0 0.00 0.00 0.00 61 1018.3
20260508134005 58 96 1.0 6.0 0.00 0.00 0.00 60 1018.4
20260508133504 58 96 0.0 3.0 0.00 0.00 0.00 62 1018.3
20260508133003 57 96 1.0 7.0 0.00 0.00 0.00 62 1018.4
20260508132503 57 96 1.0 7.0 0.00 0.00 0.00 63 1018.3
20260508132102 57 96 1.0 3.0 0.00 0.00 0.00 63 1018.3
20260508131501 57 96 0.0 2.0 0.00 0.00 0.00 65 1018.3
20260508131102 56 96 0.0 1.0 0.00 0.00 0.00 67 1018.3
20260508130559 55 96 0.0 2.0 0.00 0.00 0.00 67 1018.2
20260508125558 55 96 1.0 4.0 0.00 0.00 0.00 70 1018.1
20260508125057 54 96 0.0 3.0 0.00 0.00 0.00 70 1018.1
20260508124555 53 96 0.0 1.0 0.00 0.00 0.00 73 1018.0
20260508124055 53 96 0.0 2.0 0.00 0.00 0.00 74 1018.0
20260508123553 52 96 0.0 2.0 0.00 0.00 0.00 76 1018.0
20260508123052 52 96 0.0 2.0 0.00 0.00 0.00 80 1017.9
20260508122549 51 96 0.0 1.0 0.00 0.00 0.00 81 1018.0
20260508122049 51 96 0.0 2.0 0.00 0.00 0.00 82 1017.9
20260508121554 51 96 0.0 2.0 0.00 0.12 0.00 82 1017.9
20260508121048 50 96 0.0 1.0 0.00 0.12 0.00 83 1017.9
20260508120549 49 96 0.0 1.0 0.00 0.12 0.00 83 1017.7
20260508120052 49 96 0.0 2.0 0.00 0.12 0.00 84 1017.7
20260508115541 49 96 0.0 2.0 0.00 0.12 0.00 85 1017.6
20260508115039 48 96 0.0 2.0 0.00 0.12 0.00 86 1017.6
20260508114539 48 96 0.0 2.0 0.00 0.12 0.00 86 1017.5
20260508114038 48 96 0.0 0.0 0.00 0.12 0.00 87 1017.4
20260508113540 47 96 0.0 0.0 0.00 0.12 0.00 87 1017.3
20260508113046 47 96 0.0 0.0 0.00 0.12 0.00 89 1017.3
20260508112536 47 96 0.0 0.0 0.00 0.12 0.00 89 1017.2
20260508112036 46 96 0.0 0.0 0.00 0.12 0.00 89 1017.1
20260508111536 46 96 0.0 0.0 0.00 0.17 0.00 90 1017.1
20260508111035 46 96 0.0 0.0 0.00 0.17 0.00 90 1016.9
20260508110535 45 96 0.0 3.0 0.00 0.17 0.00 91 1016.8
20260508110033 45 96 1.0 3.0 0.00 0.17 0.00 90 1016.8
20260508105534 45 96 0.0 0.0 0.00 0.17 0.00 90 1016.7
20260508105035 45 96 0.0 0.0 0.00 0.17 0.00 90 1016.7
20260508104532 45 96 0.0 0.0 0.00 0.17 0.00 90 1016.6
20260508104031 46 96 0.0 0.0 0.00 0.17 0.00 90 1016.5
20260508103530 46 96 0.0 0.0 0.00 0.17 0.00 90 1016.4
20260508103029 46 96 0.0 0.0 0.00 0.17 0.00 89 1016.2
20260508102530 46 96 0.0 0.0 0.00 0.17 0.00 89 1016.2
20260508102029 46 96 0.0 0.0 0.00 0.17 0.00 89 1016.1
20260508101528 46 96 0.0 0.0 0.00 0.17 0.00 88 1015.9
20260508101027 47 96 0.0 0.0 0.00 0.17 0.00 88 1015.8
20260508100526 47 96 0.0 0.0 0.00 0.17 0.00 87 1015.7
20260508100025 47 96 0.0 0.0 0.00 0.17 0.00 87 1015.7
20260508095527 48 96 0.0 0.0 0.00 0.17 0.00 86 1015.6
20260508095024 48 96 0.0 0.0 0.00 0.17 0.00 86 1015.6
20260508094522 48 96 0.0 0.0 0.00 0.17 0.00 86 1015.5
20260508094021 49 96 0.0 1.0 0.00 0.17 0.00 85 1015.5
20260508093521 49 96 0.0 2.0 0.00 0.17 0.00 84 1015.5
20260508093021 49 96 0.0 1.0 0.00 0.17 0.00 85 1015.5
20260508092519 49 96 0.0 1.0 0.00 0.17 0.00 85 1015.5
20260508092020 49 96 0.0 2.0 0.00 0.17 0.00 86 1015.3
20260508091529 49 96 0.0 2.0 0.00 0.17 0.00 86 1015.3
20260508091019 49 96 0.0 2.0 0.00 0.17 0.00 85 1015.3
20260508090520 50 96 0.0 2.0 0.00 0.17 0.00 84 1015.3
20260508090019 50 96 0.0 1.0 0.00 0.17 0.00 84 1015.2
20260508085518 50 96 0.0 1.0 0.00 0.17 0.00 84 1015.2
20260508085017 50 96 0.0 1.0 0.00 0.17 0.00 84 1015.2
20260508084517 49 96 0.0 1.0 0.00 0.17 0.00 86 1015.2
20260508084022 49 96 0.0 1.0 0.00 0.17 0.00 87 1015.2
20260508083515 49 96 0.0 0.0 0.00 0.17 0.00 87 1015.1
20260508083028 49 96 0.0 0.0 0.00 0.17 0.00 87 1015.1
20260508082516 49 96 0.0 0.0 0.00 0.17 0.00 87 1015.1
20260508082016 49 96 0.0 0.0 0.00 0.17 0.00 86 1015.1
20260508081515 49 96 0.0 0.0 0.00 0.17 0.00 87 1014.9
20260508081014 49 96 0.0 0.0 0.00 0.17 0.00 87 1014.9
20260508080514 49 96 0.0 0.0 0.00 0.17 0.00 87 1015.0
20260508080014 49 96 0.0 0.0 0.00 0.17 0.00 87 1014.9
20260508075514 49 96 0.0 0.0 0.00 0.17 0.00 87 1014.9
20260508075021 49 96 0.0 0.0 0.00 0.17 0.00 86 1014.9
20260508074512 49 96 0.0 2.0 0.00 0.17 0.00 86 1014.8
20260508074012 49 96 0.0 3.0 0.00 0.17 0.00 87 1014.7
20260508073514 49 96 0.0 2.0 0.00 0.17 0.00 88 1014.6
20260508073011 49 96 0.0 2.0 0.00 0.17 0.00 87 1014.7
20260508072515 49 96 0.0 2.0 0.00 0.17 0.00 87 1014.7
20260508072011 49 96 0.0 2.0 0.00 0.17 0.00 87 1014.5
20260508071512 49 96 0.0 1.0 0.00 0.17 0.00 87 1014.7
20260508071012 49 96 0.0 1.0 0.00 0.17 0.00 87 1014.6
20260508070510 49 96 0.0 1.0 0.00 0.17 0.00 87 1014.5
20260508070011 49 96 0.0 1.0 0.00 0.17 0.00 87 1014.5
20260508065513 49 96 0.0 1.0 0.00 0.17 0.00 87 1014.4
20260508065008 49 96 0.0 1.0 0.00 0.17 0.00 87 1014.4
20260508064515 49 96 0.0 1.0 0.00 0.17 0.00 87 1014.5
20260508064008 49 96 0.0 0.0 0.00 0.17 0.00 87 1014.3
20260508063510 49 96 0.0 0.0 0.00 0.17 0.00 86 1014.3
20260508063006 50 96 0.0 0.0 0.00 0.17 0.00 86 1014.3
20260508062511 50 96 0.0 0.0 0.00 0.17 0.00 86 1014.3
20260508062007 50 96 0.0 0.0 0.00 0.17 0.00 85 1014.2
20260508061505 50 96 0.0 1.0 0.00 0.21 0.00 85 1014.1
20260508061005 51 96 0.0 1.0 0.00 0.21 0.00 85 1014.1
20260508060505 51 96 0.0 0.0 0.00 0.21 0.00 85 1014.1
20260508060005 51 96 0.0 1.0 0.00 0.21 0.00 84 1014.1
20260508055504 51 96 0.0 1.0 0.00 0.21 0.00 84 1014.1
20260508055004 51 96 0.0 1.0 0.00 0.21 0.00 84 1014.1
20260508054503 51 96 0.0 1.0 0.00 0.21 0.00 84 1014.2
20260508054004 51 96 0.0 1.0 0.00 0.21 0.00 84 1014.2
20260508053505 51 96 0.0 2.0 0.00 0.21 0.00 83 1014.1
20260508053005 51 96 1.0 3.0 0.00 0.21 0.00 84 1014.2
20260508052503 51 96 0.0 2.0 0.00 0.21 0.00 84 1014.1
20260508052004 51 96 0.0 1.0 0.00 0.21 0.00 83 1013.9
20260508051621 52 96 0.0 0.0 0.00 0.30 0.21 83 1014.0
20260508051100 52 96 0.0 0.0 0.00 0.30 0.21 82 1014.0
20260508050600 52 96 0.0 0.0 0.00 0.30 0.21 82 1014.0
20260508050100 52 96 0.0 1.0 0.00 0.30 0.21 82 1014.0
20260508045558 52 96 0.0 1.0 0.00 0.30 0.21 81 1013.9
20260508045058 52 96 0.0 1.0 0.00 0.30 0.21 81 1013.8
20260508044557 53 96 0.0 0.0 0.00 0.30 0.21 80 1013.7
20260508044056 53 96 0.0 0.0 0.00 0.30 0.21 79 1013.6
20260508043555 53 96 0.0 1.0 0.00 0.30 0.21 79 1013.5
20260508043056 53 96 0.0 1.0 0.00 0.30 0.21 78 1013.7
20260508042052 53 96 0.0 1.0 0.00 0.30 0.21 78 1013.5
20260508041553 53 96 0.0 1.0 0.00 0.31 0.21 78 1013.6
20260508041054 53 96 0.0 1.0 0.00 0.31 0.21 78 1013.5
20260508040553 53 96 0.0 3.0 0.00 0.31 0.21 78 1013.4
20260508040052 53 96 0.0 6.0 0.00 0.31 0.21 79 1013.5
20260508035552 53 96 1.0 6.0 0.00 0.31 0.21 78 1013.4
20260508035051 54 96 0.0 4.0 0.00 0.31 0.21 77 1013.5
20260508034551 54 96 1.0 4.0 0.00 0.31 0.21 76 1013.6
20260508034050 54 96 0.0 3.0 0.00 0.31 0.21 76 1013.5
20260508033549 54 96 0.0 2.0 0.00 0.31 0.21 75 1013.6
20260508033051 55 96 0.0 2.0 0.00 0.31 0.21 74 1013.6
20260508032049 55 96 2.0 4.0 0.00 0.31 0.21 73 1013.5
20260508031547 55 96 0.0 6.0 0.00 0.32 0.21 73 1013.7
20260508031047 56 96 1.0 4.0 0.00 0.32 0.21 72 1013.6
20260508030547 56 96 0.0 2.0 0.00 0.32 0.21 72 1013.6
20260508030048 56 96 0.0 2.0 0.00 0.32 0.21 71 1013.5
20260508025544 56 96 0.0 3.0 0.00 0.32 0.21 70 1013.4
20260508025043 57 96 0.0 7.0 0.00 0.32 0.21 70 1013.4
20260508024542 57 96 3.0 7.0 0.00 0.32 0.21 69 1013.2
20260508024042 57 96 1.0 4.0 0.00 0.32 0.21 69 1013.2
20260508023539 58 96 0.0 13.0 0.00 0.32 0.21 67 1013.1
20260508023039 58 96 2.0 13.0 0.00 0.32 0.21 65 1013.0
20260508022040 58 96 5.0 15.0 0.00 0.32 0.21 64 1012.9
20260508021547 58 96 6.0 15.0 0.00 0.33 0.21 65 1012.9
20260508021038 58 96 7.0 16.0 0.00 0.33 0.21 65 1012.8
20260508020538 58 96 7.0 23.0 0.00 0.33 0.21 65 1012.8
20260508020038 58 96 11.0 23.0 0.00 0.33 0.21 65 1012.8
20260508015536 58 96 7.0 14.0 0.00 0.33 0.21 66 1012.8
20260508015036 58 96 3.0 11.0 0.00 0.33 0.21 66 1012.6
20260508014535 58 96 2.0 11.0 0.00 0.33 0.21 67 1012.4
20260508014038 58 96 0.0 6.0 0.00 0.33 0.21 67 1012.5
20260508013535 58 96 1.0 7.0 0.00 0.33 0.21 67 1012.2
20260508013032 58 96 2.0 10.0 0.00 0.33 0.21 66 1012.3
20260508012032 59 96 2.0 16.0 0.00 0.33 0.21 65 1012.1
20260508011540 59 96 6.0 17.0 0.00 0.40 0.21 64 1011.9
20260508011033 59 96 9.0 22.0 0.00 0.40 0.21 65 1011.9
20260508010531 59 96 8.0 22.0 0.00 0.40 0.21 65 1011.7
20260508010039 58 96 12.0 22.0 0.00 0.40 0.21 65 1011.6
20260508005534 58 96 10.0 22.0 0.00 0.40 0.21 66 1011.5
20260508005031 58 96 10.0 21.0 0.00 0.40 0.21 65 1011.6
20260508004531 58 96 14.0 21.0 0.00 0.40 0.21 66 1011.6
20260508004032 58 96 8.0 13.0 0.00 0.40 0.21 67 1011.7
20260508003632 58 96 6.0 13.0 0.00 0.40 0.21 67 1011.7
20260508003030 59 96 4.0 23.0 0.00 0.40 0.21 66 1011.5
20260508002032 58 96 6.0 16.0 0.00 0.40 0.21 67 1011.2
20260508001530 58 96 7.0 23.0 0.00 0.53 0.21 67 1011.1
20260508001029 58 96 9.0 23.0 0.00 0.53 0.21 67 1011.0
20260508000529 58 96 9.0 27.0 0.00 0.53 0.21 67 1010.9
20260508000029 59 96 11.0 35.0 0.00 0.53 0.21 67 1010.9
20260507235531 59 97 15.0 35.0 0.00 0.53 0.21 67 1010.6
20260507235031 58 96 9.0 33.0 0.00 0.53 0.21 68 1010.6
20260507234527 59 96 20.0 33.0 0.00 0.53 0.21 68 1010.6
20260507234026 59 96 14.0 28.0 0.00 0.53 0.21 68 1010.8
20260507233626 59 97 9.0 30.0 0.00 0.53 0.21 68 1010.8
20260507233024 59 97 12.0 30.0 0.00 0.53 0.21 68 1010.7
20260507232023 59 96 13.0 26.0 0.00 0.53 0.21 69 1010.6
20260507231523 59 96 13.0 26.0 0.00 0.53 0.21 69 1010.7
20260507231023 59 96 12.0 30.0 0.00 0.53 0.21 70 1010.6
20260507230522 59 97 13.0 30.0 0.00 0.53 0.21 70 1010.8
20260507230035 60 96 16.0 28.0 0.00 0.53 0.21 70 1010.7
20260507225519 60 97 18.0 28.0 0.00 0.53 0.21 69 1010.6
20260507225019 60 96 15.0 27.0 0.00 0.53 0.21 69 1010.5
20260507224519 60 96 15.0 27.0 0.00 0.53 0.21 69 1010.5
20260507224018 61 96 13.0 23.0 0.00 0.53 0.21 69 1010.4
20260507223523 61 96 14.0 22.0 0.00 0.53 0.21 69 1010.4
20260507223023 61 96 10.0 22.0 0.00 0.53 0.21 69 1010.2
20260507222015 62 96 11.0 18.0 0.00 0.53 0.21 69 1009.9
20260507221514 62 96 7.0 20.0 0.00 0.53 0.21 70 1009.9
20260507221015 62 96 9.0 20.0 0.00 0.53 0.21 70 1009.8
20260507220515 62 96 7.0 22.0 0.00 0.53 0.21 70 1009.6
20260507220014 62 96 12.0 28.0 0.00 0.53 0.21 70 1009.5
20260507215513 62 96 19.0 30.0 0.00 0.53 0.21 69 1009.3
20260507215013 63 97 18.0 30.0 0.00 0.53 0.21 69 1009.1
20260507214512 64 96 15.0 27.0 0.00 0.53 0.21 69 1009.0
20260507214012 65 96 14.0 25.0 0.00 0.53 0.21 69 1008.6
20260507213511 65 96 13.0 25.0 0.00 0.53 0.21 68 1008.5
20260507213009 66 96 13.0 25.0 0.00 0.53 0.21 69 1008.5
20260507212017 65 96 14.0 23.0 0.00 0.53 0.21 69 1008.4
20260507211513 66 96 17.0 22.0 0.00 0.53 0.21 69 1008.4
20260507211011 65 96 12.0 22.0 0.00 0.53 0.21 68 1008.2
20260507210514 66 96 14.0 25.0 0.00 0.53 0.21 68 1008.2
20260507210010 67 96 12.0 26.0 0.00 0.53 0.21 67 1008.3
20260507205509 67 96 13.0 26.0 0.00 0.53 0.21 68 1008.3
20260507205009 67 96 13.0 27.0 0.00 0.53 0.21 68 1008.2
20260507204509 67 96 14.0 28.0 0.00 0.53 0.21 68 1008.1
20260507204008 67 96 11.0 25.0 0.00 0.53 0.21 68 1008.0
20260507203509 67 96 13.0 19.0 0.00 0.53 0.21 68 1008.1
20260507203022 69 96 12.0 19.0 0.00 0.53 0.21 67 1008.0
20260507202006 68 96 7.0 21.0 0.00 0.53 0.21 69 1008.0
20260507201504 68 96 15.0 22.0 0.00 0.53 0.21 68 1008.1
20260507201006 68 96 13.0 22.0 0.00 0.53 0.21 68 1007.9
20260507200503 68 96 8.0 19.0 0.00 0.53 0.21 69 1007.8